Year,Month,Day,Hour,Minute,Value (Times are PST for temperature in C)
2013,03,30,00,00,6.10
2013,03,30,00,01,6.00
2013,03,30,00,02,6.00
2013,03,30,00,03,6.00
2013,03,30,00,04,6.00
2013,03,30,00,05,5.90
2013,03,30,00,06,5.90
2013,03,30,00,07,5.90
2013,03,30,00,08,5.80
2013,03,30,00,09,5.80
2013,03,30,00,10,5.70
2013,03,30,00,11,5.70
2013,03,30,00,12,5.70
2013,03,30,00,13,5.60
2013,03,30,00,14,5.60
2013,03,30,00,15,5.60
2013,03,30,00,16,5.60
2013,03,30,00,17,5.60
2013,03,30,00,18,5.60
2013,03,30,00,19,5.60
2013,03,30,00,20,5.60
2013,03,30,00,21,5.60
2013,03,30,00,22,5.60
2013,03,30,00,23,5.60
2013,03,30,00,24,5.60
2013,03,30,00,25,5.60
2013,03,30,00,26,5.60
2013,03,30,00,27,5.60
2013,03,30,00,28,5.60
2013,03,30,00,29,5.60
2013,03,30,00,30,5.70
2013,03,30,00,31,5.70
2013,03,30,00,32,5.80
2013,03,30,00,33,5.80
2013,03,30,00,34,5.80
2013,03,30,00,35,5.90
2013,03,30,00,36,6.00
2013,03,30,00,37,6.10
2013,03,30,00,38,6.10
2013,03,30,00,39,6.20
2013,03,30,00,40,6.20
2013,03,30,00,41,6.20
2013,03,30,00,42,6.20
2013,03,30,00,43,6.30
2013,03,30,00,44,6.30
2013,03,30,00,45,6.30
2013,03,30,00,46,6.40
2013,03,30,00,47,6.40
2013,03,30,00,48,6.40
2013,03,30,00,49,6.40
2013,03,30,00,50,6.50
2013,03,30,00,51,6.50
2013,03,30,00,52,6.60
2013,03,30,00,53,6.70
2013,03,30,00,54,6.80
2013,03,30,00,55,6.90
2013,03,30,00,56,6.90
2013,03,30,00,57,7.00
2013,03,30,00,58,7.10
2013,03,30,00,59,7.10
2013,03,30,01,00,7.20
2013,03,30,01,01,7.30
2013,03,30,01,02,7.30
2013,03,30,01,03,7.30
2013,03,30,01,04,7.30
2013,03,30,01,05,7.30
2013,03,30,01,06,7.30
2013,03,30,01,07,7.30
2013,03,30,01,08,7.30
2013,03,30,01,09,7.30
2013,03,30,01,10,7.30
2013,03,30,01,11,7.30
2013,03,30,01,12,7.30
2013,03,30,01,13,7.30
2013,03,30,01,14,7.30
2013,03,30,01,15,7.20
2013,03,30,01,16,7.20
2013,03,30,01,17,7.20
2013,03,30,01,18,7.20
2013,03,30,01,19,7.20
2013,03,30,01,20,7.10
2013,03,30,01,21,7.10
2013,03,30,01,22,7.10
2013,03,30,01,23,7.00
2013,03,30,01,24,7.00
2013,03,30,01,25,6.90
2013,03,30,01,26,6.80
2013,03,30,01,27,6.80
2013,03,30,01,28,6.70
2013,03,30,01,29,6.60
2013,03,30,01,30,6.50
2013,03,30,01,31,6.50
2013,03,30,01,32,6.40
2013,03,30,01,33,6.30
2013,03,30,01,34,6.30
2013,03,30,01,35,6.20
2013,03,30,01,36,6.20
2013,03,30,01,37,6.10
2013,03,30,01,38,6.00
2013,03,30,01,39,6.00
2013,03,30,01,40,5.90
2013,03,30,01,41,5.80
2013,03,30,01,42,5.80
2013,03,30,01,43,5.70
2013,03,30,01,44,5.70
2013,03,30,01,45,5.60
2013,03,30,01,46,5.60
2013,03,30,01,47,5.50
2013,03,30,01,48,5.40
2013,03,30,01,49,5.40
2013,03,30,01,50,5.30
2013,03,30,01,51,5.30
2013,03,30,01,52,5.30
2013,03,30,01,53,5.20
2013,03,30,01,54,5.20
2013,03,30,01,55,5.20
2013,03,30,01,56,5.10
2013,03,30,01,57,5.10
2013,03,30,01,58,5.10
2013,03,30,01,59,5.00
2013,03,30,02,00,5.00
2013,03,30,02,01,5.00
2013,03,30,02,02,5.00
2013,03,30,02,03,5.00
2013,03,30,02,04,5.00
2013,03,30,02,05,5.00
2013,03,30,02,06,5.00
2013,03,30,02,07,5.10
2013,03,30,02,08,5.10
2013,03,30,02,09,5.20
2013,03,30,02,10,5.20
2013,03,30,02,11,5.20
2013,03,30,02,12,5.20
2013,03,30,02,13,5.20
2013,03,30,02,14,5.20
2013,03,30,02,15,5.30
2013,03,30,02,16,5.30
2013,03,30,02,17,5.20
2013,03,30,02,18,5.20
2013,03,30,02,19,5.20
2013,03,30,02,20,5.20
2013,03,30,02,21,5.20
2013,03,30,02,22,5.20
2013,03,30,02,23,5.10
2013,03,30,02,24,5.10
2013,03,30,02,25,5.10
2013,03,30,02,26,5.10
2013,03,30,02,27,5.10
2013,03,30,02,28,5.10
2013,03,30,02,29,5.10
2013,03,30,02,30,5.10
2013,03,30,02,31,5.00
2013,03,30,02,32,5.00
2013,03,30,02,33,5.00
2013,03,30,02,34,4.90
2013,03,30,02,35,4.90
2013,03,30,02,36,4.90
2013,03,30,02,37,4.90
2013,03,30,02,38,4.90
2013,03,30,02,39,4.90
2013,03,30,02,40,4.90
2013,03,30,02,41,4.90
2013,03,30,02,42,4.90
2013,03,30,02,43,4.80
2013,03,30,02,44,4.80
2013,03,30,02,45,4.80
2013,03,30,02,46,4.80
2013,03,30,02,47,4.80
2013,03,30,02,48,4.90
2013,03,30,02,49,4.80
2013,03,30,02,50,4.80
2013,03,30,02,51,4.80
2013,03,30,02,52,4.80
2013,03,30,02,53,4.80
2013,03,30,02,54,4.80
2013,03,30,02,55,4.80
2013,03,30,02,56,4.80
2013,03,30,02,57,4.80
2013,03,30,02,58,4.80
2013,03,30,02,59,4.80
2013,03,30,03,00,4.80
2013,03,30,03,01,4.80
2013,03,30,03,02,4.70
2013,03,30,03,03,4.70
2013,03,30,03,04,4.70
2013,03,30,03,05,4.70
2013,03,30,03,06,4.80
2013,03,30,03,07,4.80
2013,03,30,03,08,4.80
2013,03,30,03,09,4.80
2013,03,30,03,10,4.80
2013,03,30,03,11,4.80
2013,03,30,03,12,4.80
2013,03,30,03,13,4.80
2013,03,30,03,14,4.80
2013,03,30,03,15,4.90
2013,03,30,03,16,5.00
2013,03,30,03,17,5.00
2013,03,30,03,18,5.00
2013,03,30,03,19,5.00
2013,03,30,03,20,4.90
2013,03,30,03,21,4.90
2013,03,30,03,22,5.00
2013,03,30,03,23,4.90
2013,03,30,03,24,4.90
2013,03,30,03,25,4.90
2013,03,30,03,26,4.80
2013,03,30,03,27,4.80
2013,03,30,03,28,4.80
2013,03,30,03,29,4.80
2013,03,30,03,30,4.80
2013,03,30,03,31,4.80
2013,03,30,03,32,4.80
2013,03,30,03,33,4.80
2013,03,30,03,34,4.80
2013,03,30,03,35,4.80
2013,03,30,03,36,4.80
2013,03,30,03,37,4.80
2013,03,30,03,38,4.80
2013,03,30,03,39,4.80
2013,03,30,03,40,4.70
2013,03,30,03,41,4.70
2013,03,30,03,42,4.70
2013,03,30,03,43,4.70
2013,03,30,03,44,4.70
2013,03,30,03,45,4.60
2013,03,30,03,46,4.60
2013,03,30,03,47,4.70
2013,03,30,03,48,4.70
2013,03,30,03,49,4.70
2013,03,30,03,50,4.80
2013,03,30,03,51,4.90
2013,03,30,03,52,4.90
2013,03,30,03,53,5.00
2013,03,30,03,54,5.00
2013,03,30,03,55,5.10
2013,03,30,03,56,5.20
2013,03,30,03,57,5.20
2013,03,30,03,58,5.30
2013,03,30,03,59,5.30
2013,03,30,04,00,5.30
2013,03,30,04,01,5.30
2013,03,30,04,02,5.30
2013,03,30,04,03,5.20
2013,03,30,04,04,5.30
2013,03,30,04,05,5.30
2013,03,30,04,06,5.30
2013,03,30,04,07,5.30
2013,03,30,04,08,5.20
2013,03,30,04,09,5.20
2013,03,30,04,10,5.10
2013,03,30,04,11,5.10
2013,03,30,04,12,5.00
2013,03,30,04,13,4.90
2013,03,30,04,14,4.90
2013,03,30,04,15,4.80
2013,03,30,04,16,4.80
2013,03,30,04,17,4.70
2013,03,30,04,18,4.70
2013,03,30,04,19,4.70
2013,03,30,04,20,4.80
2013,03,30,04,21,4.80
2013,03,30,04,22,4.90
2013,03,30,04,23,4.90
2013,03,30,04,24,4.90
2013,03,30,04,25,4.90
2013,03,30,04,26,4.80
2013,03,30,04,27,4.80
2013,03,30,04,28,4.80
2013,03,30,04,29,4.70
2013,03,30,04,30,4.70
2013,03,30,04,31,4.70
2013,03,30,04,32,4.70
2013,03,30,04,33,4.70
2013,03,30,04,34,4.70
2013,03,30,04,35,4.80
2013,03,30,04,36,4.80
2013,03,30,04,37,4.80
2013,03,30,04,38,4.80
2013,03,30,04,39,4.70
2013,03,30,04,40,4.70
2013,03,30,04,41,4.70
2013,03,30,04,42,4.70
2013,03,30,04,43,4.60
2013,03,30,04,44,4.60
2013,03,30,04,45,4.60
2013,03,30,04,46,4.50
2013,03,30,04,47,4.50
2013,03,30,04,48,4.40
2013,03,30,04,49,4.30
2013,03,30,04,50,4.30
2013,03,30,04,51,4.20
2013,03,30,04,52,4.20
2013,03,30,04,53,4.10
2013,03,30,04,54,4.00
2013,03,30,04,55,4.00
2013,03,30,04,56,3.90
2013,03,30,04,57,3.90
2013,03,30,04,58,3.90
2013,03,30,04,59,3.90
2013,03,30,05,00,3.90
2013,03,30,05,01,4.00
2013,03,30,05,02,4.00
2013,03,30,05,03,4.10
2013,03,30,05,04,4.10
2013,03,30,05,05,4.10
2013,03,30,05,06,4.00
2013,03,30,05,07,4.00
2013,03,30,05,08,4.00
2013,03,30,05,09,3.90
2013,03,30,05,10,4.00
2013,03,30,05,11,4.00
2013,03,30,05,12,4.00
2013,03,30,05,13,4.00
2013,03,30,05,14,4.00
2013,03,30,05,15,4.00
2013,03,30,05,16,4.00
2013,03,30,05,17,4.10
2013,03,30,05,18,4.10
2013,03,30,05,19,4.10
2013,03,30,05,20,4.10
2013,03,30,05,21,4.10
2013,03,30,05,22,4.00
2013,03,30,05,23,4.00
2013,03,30,05,24,3.90
2013,03,30,05,25,3.90
2013,03,30,05,26,3.90
2013,03,30,05,27,3.80
2013,03,30,05,28,3.80
2013,03,30,05,29,3.80
2013,03,30,05,30,3.70
2013,03,30,05,31,3.70
2013,03,30,05,32,3.70
2013,03,30,05,33,3.60
2013,03,30,05,34,3.60
2013,03,30,05,35,3.60
2013,03,30,05,36,3.60
2013,03,30,05,37,3.60
2013,03,30,05,38,3.60
2013,03,30,05,39,3.70
2013,03,30,05,40,3.80
2013,03,30,05,41,3.80
2013,03,30,05,42,3.80
2013,03,30,05,43,3.80
2013,03,30,05,44,3.90
2013,03,30,05,45,3.90
2013,03,30,05,46,3.90
2013,03,30,05,47,3.90
2013,03,30,05,48,3.90
2013,03,30,05,49,3.90
2013,03,30,05,50,3.90
2013,03,30,05,51,3.80
2013,03,30,05,52,3.80
2013,03,30,05,53,3.80
2013,03,30,05,54,3.70
2013,03,30,05,55,3.70
2013,03,30,05,56,3.70
2013,03,30,05,57,3.60
2013,03,30,05,58,3.60
2013,03,30,05,59,3.60
2013,03,30,06,00,3.60
2013,03,30,06,01,3.60
2013,03,30,06,02,3.60
2013,03,30,06,03,3.60
2013,03,30,06,04,3.60
2013,03,30,06,05,3.60
2013,03,30,06,06,3.60
2013,03,30,06,07,3.60
2013,03,30,06,08,3.60
2013,03,30,06,09,3.60
2013,03,30,06,10,3.60
2013,03,30,06,11,3.60
2013,03,30,06,12,3.60
2013,03,30,06,13,3.60
2013,03,30,06,14,3.60
2013,03,30,06,15,3.60
2013,03,30,06,16,3.50
2013,03,30,06,17,3.50
2013,03,30,06,18,3.50
2013,03,30,06,19,3.50
2013,03,30,06,20,3.50
2013,03,30,06,21,3.50
2013,03,30,06,22,3.50
2013,03,30,06,23,3.50
2013,03,30,06,24,3.50
2013,03,30,06,25,3.60
2013,03,30,06,26,3.60
2013,03,30,06,27,3.60
2013,03,30,06,28,3.60
2013,03,30,06,29,3.60
2013,03,30,06,30,3.60
2013,03,30,06,31,3.60
2013,03,30,06,32,3.60
2013,03,30,06,33,3.70
2013,03,30,06,34,3.70
2013,03,30,06,35,3.70
2013,03,30,06,36,3.70
2013,03,30,06,37,3.70
2013,03,30,06,38,3.70
2013,03,30,06,39,3.70
2013,03,30,06,40,3.70
2013,03,30,06,41,3.80
2013,03,30,06,42,3.80
2013,03,30,06,43,3.90
2013,03,30,06,44,3.90
2013,03,30,06,45,4.00
2013,03,30,06,46,4.10
2013,03,30,06,47,4.20
2013,03,30,06,48,4.30
2013,03,30,06,49,4.30
2013,03,30,06,50,4.30
2013,03,30,06,51,4.40
2013,03,30,06,52,4.40
2013,03,30,06,53,4.40
2013,03,30,06,54,4.40
2013,03,30,06,55,4.30
2013,03,30,06,56,4.30
2013,03,30,06,57,4.20
2013,03,30,06,58,4.20
2013,03,30,06,59,4.20
2013,03,30,07,00,4.30
2013,03,30,07,01,4.40
2013,03,30,07,02,4.40
2013,03,30,07,03,4.40
2013,03,30,07,04,4.40
2013,03,30,07,05,4.40
2013,03,30,07,06,4.40
2013,03,30,07,07,4.50
2013,03,30,07,08,4.50
2013,03,30,07,09,4.50
2013,03,30,07,10,4.60
2013,03,30,07,11,4.70
2013,03,30,07,12,4.70
2013,03,30,07,13,4.70
2013,03,30,07,14,4.70
2013,03,30,07,15,4.70
2013,03,30,07,16,4.80
2013,03,30,07,17,4.80
2013,03,30,07,18,4.90
2013,03,30,07,19,4.90
2013,03,30,07,20,5.00
2013,03,30,07,21,5.00
2013,03,30,07,22,5.10
2013,03,30,07,23,5.20
2013,03,30,07,24,5.20
2013,03,30,07,25,5.20
2013,03,30,07,26,5.30
2013,03,30,07,27,5.30
2013,03,30,07,28,5.30
2013,03,30,07,29,5.40
2013,03,30,07,30,5.40
2013,03,30,07,31,5.40
2013,03,30,07,32,5.40
2013,03,30,07,33,5.40
2013,03,30,07,34,5.40
2013,03,30,07,35,5.40
2013,03,30,07,36,5.40
2013,03,30,07,37,5.50
2013,03,30,07,38,5.50
2013,03,30,07,39,5.50
2013,03,30,07,40,5.50
2013,03,30,07,41,5.50
2013,03,30,07,42,5.50
2013,03,30,07,43,5.50
2013,03,30,07,44,5.50
2013,03,30,07,45,5.50
2013,03,30,07,46,5.60
2013,03,30,07,47,5.60
2013,03,30,07,48,5.60
2013,03,30,07,49,5.60
2013,03,30,07,50,5.70
2013,03,30,07,51,5.70
2013,03,30,07,52,5.70
2013,03,30,07,53,5.70
2013,03,30,07,54,5.80
2013,03,30,07,55,5.80
2013,03,30,07,56,5.80
2013,03,30,07,57,5.80
2013,03,30,07,58,5.80
2013,03,30,07,59,5.80
2013,03,30,08,00,5.80
2013,03,30,08,01,5.80
2013,03,30,08,02,5.90
2013,03,30,08,03,5.90
2013,03,30,08,04,5.90
2013,03,30,08,05,5.90
2013,03,30,08,06,5.90
2013,03,30,08,07,6.00
2013,03,30,08,08,6.20
2013,03,30,08,09,6.30
2013,03,30,08,10,6.30
2013,03,30,08,11,6.40
2013,03,30,08,12,6.40
2013,03,30,08,13,6.50
2013,03,30,08,14,6.60
2013,03,30,08,15,6.70
2013,03,30,08,16,6.80
2013,03,30,08,17,6.80
2013,03,30,08,18,6.90
2013,03,30,08,19,7.00
2013,03,30,08,20,7.10
2013,03,30,08,21,7.20
2013,03,30,08,22,7.30
2013,03,30,08,23,7.40
2013,03,30,08,24,7.50
2013,03,30,08,25,7.60
2013,03,30,08,26,7.70
2013,03,30,08,27,7.80
2013,03,30,08,28,7.90
2013,03,30,08,29,8.00
2013,03,30,08,30,8.00
2013,03,30,08,31,8.10
2013,03,30,08,32,8.20
2013,03,30,08,33,8.20
2013,03,30,08,34,8.30
2013,03,30,08,35,8.30
2013,03,30,08,36,8.40
2013,03,30,08,37,8.50
2013,03,30,08,38,8.50
2013,03,30,08,39,8.60
2013,03,30,08,40,8.70
2013,03,30,08,41,8.70
2013,03,30,08,42,8.80
2013,03,30,08,43,8.80
2013,03,30,08,44,8.80
2013,03,30,08,45,8.90
2013,03,30,08,46,9.00
2013,03,30,08,47,9.00
2013,03,30,08,48,9.10
2013,03,30,08,49,9.10
2013,03,30,08,50,9.10
2013,03,30,08,51,9.20
2013,03,30,08,52,9.20
2013,03,30,08,53,9.20
2013,03,30,08,54,9.30
2013,03,30,08,55,9.30
2013,03,30,08,56,9.30
2013,03,30,08,57,9.30
2013,03,30,08,58,9.40
2013,03,30,08,59,9.40
2013,03,30,09,00,9.40
2013,03,30,09,01,9.40
2013,03,30,09,02,9.40
2013,03,30,09,03,9.40
2013,03,30,09,04,9.50
2013,03,30,09,05,9.50
2013,03,30,09,06,9.60
2013,03,30,09,07,9.60
2013,03,30,09,08,9.60
2013,03,30,09,09,9.60
2013,03,30,09,10,9.60
2013,03,30,09,11,9.60
2013,03,30,09,12,9.60
2013,03,30,09,13,9.60
2013,03,30,09,14,9.60
2013,03,30,09,15,9.60
2013,03,30,09,16,9.60
2013,03,30,09,17,9.60
2013,03,30,09,18,9.60
2013,03,30,09,19,9.60
2013,03,30,09,20,9.60
2013,03,30,09,21,9.60
2013,03,30,09,22,9.60
2013,03,30,09,23,9.60
2013,03,30,09,24,9.60
2013,03,30,09,25,9.60
2013,03,30,09,26,9.60
2013,03,30,09,27,9.60
2013,03,30,09,28,9.60
2013,03,30,09,29,9.60
2013,03,30,09,30,9.60
2013,03,30,09,31,9.70
2013,03,30,09,32,9.70
2013,03,30,09,33,9.70
2013,03,30,09,34,9.70
2013,03,30,09,35,9.70
2013,03,30,09,36,9.70
2013,03,30,09,37,9.80
2013,03,30,09,38,9.80
2013,03,30,09,39,9.80
2013,03,30,09,40,9.80
2013,03,30,09,41,9.80
2013,03,30,09,42,9.80
2013,03,30,09,43,9.80
2013,03,30,09,44,9.80
2013,03,30,09,45,9.80
2013,03,30,09,46,9.80
2013,03,30,09,47,9.80
2013,03,30,09,48,9.80
2013,03,30,09,49,9.80
2013,03,30,09,50,9.90
2013,03,30,09,51,9.90
2013,03,30,09,52,10.00
2013,03,30,09,53,10.00
2013,03,30,09,54,10.10
2013,03,30,09,55,10.10
2013,03,30,09,56,10.10
2013,03,30,09,57,10.10
2013,03,30,09,58,10.10
2013,03,30,09,59,10.10
2013,03,30,10,00,10.10
2013,03,30,10,01,10.20
2013,03,30,10,02,10.20
2013,03,30,10,03,10.20
2013,03,30,10,04,10.20
2013,03,30,10,05,10.10
2013,03,30,10,06,10.20
2013,03,30,10,07,10.20
2013,03,30,10,08,10.20
2013,03,30,10,09,10.20
2013,03,30,10,10,10.20
2013,03,30,10,11,10.30
2013,03,30,10,12,10.30
2013,03,30,10,13,10.30
2013,03,30,10,14,10.30
2013,03,30,10,15,10.30
2013,03,30,10,16,10.20
2013,03,30,10,17,10.20
2013,03,30,10,18,10.10
2013,03,30,10,19,10.10
2013,03,30,10,20,10.10
2013,03,30,10,21,10.00
2013,03,30,10,22,10.00
2013,03,30,10,23,10.00
2013,03,30,10,24,9.90
2013,03,30,10,25,9.90
2013,03,30,10,26,9.90
2013,03,30,10,27,9.90
2013,03,30,10,28,9.90
2013,03,30,10,29,10.00
2013,03,30,10,30,10.00
2013,03,30,10,31,10.00
2013,03,30,10,32,10.10
2013,03,30,10,33,10.20
2013,03,30,10,34,10.20
2013,03,30,10,35,10.20
2013,03,30,10,36,10.30
2013,03,30,10,37,10.30
2013,03,30,10,38,10.30
2013,03,30,10,39,10.30
2013,03,30,10,40,10.40
2013,03,30,10,41,10.40
2013,03,30,10,42,10.40
2013,03,30,10,43,10.40
2013,03,30,10,44,10.40
2013,03,30,10,45,10.40
2013,03,30,10,46,10.40
2013,03,30,10,47,10.40
2013,03,30,10,48,10.50
2013,03,30,10,49,10.50
2013,03,30,10,50,10.60
2013,03,30,10,51,10.60
2013,03,30,10,52,10.60
2013,03,30,10,53,10.70
2013,03,30,10,54,10.70
2013,03,30,10,55,10.80
2013,03,30,10,56,10.80
2013,03,30,10,57,10.80
2013,03,30,10,58,10.80
2013,03,30,10,59,10.90
2013,03,30,11,00,10.90
2013,03,30,11,01,10.80
2013,03,30,11,02,10.80
2013,03,30,11,03,10.70
2013,03,30,11,04,10.50
2013,03,30,11,05,10.40
2013,03,30,11,06,10.30
2013,03,30,11,07,10.20
2013,03,30,11,08,10.00
2013,03,30,11,09,9.90
2013,03,30,11,10,9.80
2013,03,30,11,11,9.80
2013,03,30,11,12,9.80
2013,03,30,11,13,9.80
2013,03,30,11,14,9.80
2013,03,30,11,15,9.80
2013,03,30,11,16,9.90
2013,03,30,11,17,9.90
2013,03,30,11,18,9.80
2013,03,30,11,19,9.80
2013,03,30,11,20,9.80
2013,03,30,11,21,9.70
2013,03,30,11,22,9.60
2013,03,30,11,23,9.60
2013,03,30,11,24,9.50
2013,03,30,11,25,9.50
2013,03,30,11,26,9.40
2013,03,30,11,27,9.40
2013,03,30,11,28,9.40
2013,03,30,11,29,9.40
2013,03,30,11,30,9.40
2013,03,30,11,31,9.50
2013,03,30,11,32,9.50
2013,03,30,11,33,9.50
2013,03,30,11,34,9.40
2013,03,30,11,35,9.40
2013,03,30,11,36,9.50
2013,03,30,11,37,9.50
2013,03,30,11,38,9.50
2013,03,30,11,39,9.50
2013,03,30,11,40,9.50
2013,03,30,11,41,9.50
2013,03,30,11,42,9.50
2013,03,30,11,43,9.60
2013,03,30,11,44,9.60
2013,03,30,11,45,9.50
2013,03,30,11,46,9.50
2013,03,30,11,47,9.50
2013,03,30,11,48,9.50
2013,03,30,11,49,9.50
2013,03,30,11,50,9.50
2013,03,30,11,51,9.60
2013,03,30,11,52,9.50
2013,03,30,11,53,9.50
2013,03,30,11,54,9.60
2013,03,30,11,55,9.60
2013,03,30,11,56,9.70
2013,03,30,11,57,9.80
2013,03,30,11,58,9.80
2013,03,30,11,59,9.90
2013,03,30,12,00,9.90
2013,03,30,12,01,9.90
2013,03,30,12,02,10.00
2013,03,30,12,03,10.00
2013,03,30,12,04,10.10
2013,03,30,12,05,10.10
2013,03,30,12,06,10.10
2013,03,30,12,07,10.10
2013,03,30,12,08,10.20
2013,03,30,12,09,10.20
2013,03,30,12,10,10.20
2013,03,30,12,11,10.30
2013,03,30,12,12,10.30
2013,03,30,12,13,10.30
2013,03,30,12,14,10.20
2013,03,30,12,15,10.20
2013,03,30,12,16,10.20
2013,03,30,12,17,10.10
2013,03,30,12,18,10.10
2013,03,30,12,19,10.10
2013,03,30,12,20,10.10
2013,03,30,12,21,10.00
2013,03,30,12,22,9.90
2013,03,30,12,23,10.00
2013,03,30,12,24,10.00
2013,03,30,12,25,10.00
2013,03,30,12,26,10.00
2013,03,30,12,27,10.00
2013,03,30,12,28,10.10
2013,03,30,12,29,10.10
2013,03,30,12,30,10.10
2013,03,30,12,31,10.20
2013,03,30,12,32,10.20
2013,03,30,12,33,10.30
2013,03,30,12,34,10.30
2013,03,30,12,35,10.30
2013,03,30,12,36,10.30
2013,03,30,12,37,10.30
2013,03,30,12,38,10.30
2013,03,30,12,39,10.30
2013,03,30,12,40,10.30
2013,03,30,12,41,10.30
2013,03,30,12,42,10.30
2013,03,30,12,43,10.30
2013,03,30,12,44,10.30
2013,03,30,12,45,10.30
2013,03,30,12,46,10.30
2013,03,30,12,47,10.30
2013,03,30,12,48,10.30
2013,03,30,12,49,10.40
2013,03,30,12,50,10.40
2013,03,30,12,51,10.50
2013,03,30,12,52,10.60
2013,03,30,12,53,10.60
2013,03,30,12,54,10.70
2013,03,30,12,55,10.70
2013,03,30,12,56,10.80
2013,03,30,12,57,10.80
2013,03,30,12,58,10.80
2013,03,30,12,59,10.70
2013,03,30,13,00,10.70
2013,03,30,13,01,10.70
2013,03,30,13,02,10.70
2013,03,30,13,03,10.70
2013,03,30,13,04,10.70
2013,03,30,13,05,10.70
2013,03,30,13,06,10.80
2013,03,30,13,07,10.80
2013,03,30,13,08,10.80
2013,03,30,13,09,10.80
2013,03,30,13,10,10.80
2013,03,30,13,11,10.80
2013,03,30,13,12,10.90
2013,03,30,13,13,10.90
2013,03,30,13,14,11.00
2013,03,30,13,15,11.00
2013,03,30,13,16,11.00
2013,03,30,13,17,11.10
2013,03,30,13,18,11.10
2013,03,30,13,19,11.10
2013,03,30,13,20,11.20
2013,03,30,13,21,11.20
2013,03,30,13,22,11.20
2013,03,30,13,23,11.30
2013,03,30,13,24,11.40
2013,03,30,13,25,11.40
2013,03,30,13,26,11.50
2013,03,30,13,27,11.50
2013,03,30,13,28,11.60
2013,03,30,13,29,11.70
2013,03,30,13,30,11.70
2013,03,30,13,31,11.70
2013,03,30,13,32,11.70
2013,03,30,13,33,11.80
2013,03,30,13,34,11.90
2013,03,30,13,35,11.90
2013,03,30,13,36,12.00
2013,03,30,13,37,12.00
2013,03,30,13,38,12.10
2013,03,30,13,39,12.10
2013,03,30,13,40,12.10
2013,03,30,13,41,12.20
2013,03,30,13,42,12.20
2013,03,30,13,43,12.30
2013,03,30,13,44,12.30
2013,03,30,13,45,12.30
2013,03,30,13,46,12.30
2013,03,30,13,47,12.30
2013,03,30,13,48,12.30
2013,03,30,13,49,12.20
2013,03,30,13,50,12.20
2013,03,30,13,51,12.20
2013,03,30,13,52,12.30
2013,03,30,13,53,12.30
2013,03,30,13,54,12.30
2013,03,30,13,55,12.40
2013,03,30,13,56,12.40
2013,03,30,13,57,12.40
2013,03,30,13,58,12.50
2013,03,30,13,59,12.50
2013,03,30,14,00,12.60
2013,03,30,14,01,12.60
2013,03,30,14,02,12.70
2013,03,30,14,03,12.70
2013,03,30,14,04,12.80
2013,03,30,14,05,12.80
2013,03,30,14,06,12.80
2013,03,30,14,07,12.80
2013,03,30,14,08,12.90
2013,03,30,14,09,12.90
2013,03,30,14,10,12.90
2013,03,30,14,11,12.90
2013,03,30,14,12,12.90
2013,03,30,14,13,13.00
2013,03,30,14,14,13.00
2013,03,30,14,15,13.00
2013,03,30,14,16,13.00
2013,03,30,14,17,13.00
2013,03,30,14,18,13.10
2013,03,30,14,19,13.10
2013,03,30,14,20,13.10
2013,03,30,14,21,13.10
2013,03,30,14,22,13.00
2013,03,30,14,23,13.10
2013,03,30,14,24,13.10
2013,03,30,14,25,13.10
2013,03,30,14,26,13.10
2013,03,30,14,27,13.10
2013,03,30,14,28,13.10
2013,03,30,14,29,13.10
2013,03,30,14,30,13.00
2013,03,30,14,31,13.00
2013,03,30,14,32,13.00
2013,03,30,14,33,13.10
2013,03,30,14,34,13.10
2013,03,30,14,35,13.10
2013,03,30,14,36,13.10
2013,03,30,14,37,13.10
2013,03,30,14,38,13.10
2013,03,30,14,39,13.20
2013,03,30,14,40,13.20
2013,03,30,14,41,13.30
2013,03,30,14,42,13.30
2013,03,30,14,43,13.30
2013,03,30,14,44,13.30
2013,03,30,14,45,13.30
2013,03,30,14,46,13.20
2013,03,30,14,47,13.20
2013,03,30,14,48,13.20
2013,03,30,14,49,13.20
2013,03,30,14,50,13.20
2013,03,30,14,51,13.10
2013,03,30,14,52,13.10
2013,03,30,14,53,13.10
2013,03,30,14,54,13.10
2013,03,30,14,55,13.10
2013,03,30,14,56,13.10
2013,03,30,14,57,13.10
2013,03,30,14,58,13.10
2013,03,30,14,59,13.10
2013,03,30,15,00,13.10
2013,03,30,15,01,13.10
2013,03,30,15,02,13.10
2013,03,30,15,03,13.00
2013,03,30,15,04,13.00
2013,03,30,15,05,13.00
2013,03,30,15,06,13.00
2013,03,30,15,07,13.10
2013,03,30,15,08,13.10
2013,03,30,15,09,13.10
2013,03,30,15,10,13.10
2013,03,30,15,11,13.10
2013,03,30,15,12,13.10
2013,03,30,15,13,13.20
2013,03,30,15,14,13.20
2013,03,30,15,15,13.20
2013,03,30,15,16,13.20
2013,03,30,15,17,13.20
2013,03,30,15,18,13.30
2013,03,30,15,19,13.30
2013,03,30,15,20,13.30
2013,03,30,15,21,13.30
2013,03,30,15,22,13.30
2013,03,30,15,23,13.30
2013,03,30,15,24,13.30
2013,03,30,15,25,13.30
2013,03,30,15,26,13.30
2013,03,30,15,27,13.30
2013,03,30,15,28,13.30
2013,03,30,15,29,13.30
2013,03,30,15,30,13.30
2013,03,30,15,31,13.30
2013,03,30,15,32,13.30
2013,03,30,15,33,13.30
2013,03,30,15,34,13.40
2013,03,30,15,35,13.40
2013,03,30,15,36,13.40
2013,03,30,15,37,13.40
2013,03,30,15,38,13.50
2013,03,30,15,39,13.50
2013,03,30,15,40,13.50
2013,03,30,15,41,13.50
2013,03,30,15,42,13.60
2013,03,30,15,43,13.60
2013,03,30,15,44,13.60
2013,03,30,15,45,13.60
2013,03,30,15,46,13.70
2013,03,30,15,47,13.70
2013,03,30,15,48,13.70
2013,03,30,15,49,13.70
2013,03,30,15,50,13.70
2013,03,30,15,51,13.70
2013,03,30,15,52,13.70
2013,03,30,15,53,13.70
2013,03,30,15,54,13.70
2013,03,30,15,55,13.70
2013,03,30,15,56,13.70
2013,03,30,15,57,13.70
2013,03,30,15,58,13.70
2013,03,30,15,59,13.70
2013,03,30,16,00,13.70
2013,03,30,16,01,13.80
2013,03,30,16,02,13.80
2013,03,30,16,03,13.70
2013,03,30,16,04,13.80
2013,03,30,16,05,13.80
2013,03,30,16,06,13.80
2013,03,30,16,07,13.80
2013,03,30,16,08,13.80
2013,03,30,16,09,13.80
2013,03,30,16,10,13.80
2013,03,30,16,11,13.80
2013,03,30,16,12,13.80
2013,03,30,16,13,13.90
2013,03,30,16,14,13.90
2013,03,30,16,15,13.90
2013,03,30,16,16,13.90
2013,03,30,16,17,13.90
2013,03,30,16,18,14.00
2013,03,30,16,19,14.00
2013,03,30,16,20,14.10
2013,03,30,16,21,14.10
2013,03,30,16,22,14.20
2013,03,30,16,23,14.20
2013,03,30,16,24,14.20
2013,03,30,16,25,14.30
2013,03,30,16,26,14.30
2013,03,30,16,27,14.30
2013,03,30,16,28,14.30
2013,03,30,16,29,14.40
2013,03,30,16,30,14.40
2013,03,30,16,31,14.50
2013,03,30,16,32,14.60
2013,03,30,16,33,14.70
2013,03,30,16,34,14.80
2013,03,30,16,35,14.80
2013,03,30,16,36,14.80
2013,03,30,16,37,14.80
2013,03,30,16,38,14.80
2013,03,30,16,39,14.90
2013,03,30,16,40,14.90
2013,03,30,16,41,14.80
2013,03,30,16,42,14.80
2013,03,30,16,43,14.80
2013,03,30,16,44,14.80
2013,03,30,16,45,14.80
2013,03,30,16,46,14.80
2013,03,30,16,47,14.90
2013,03,30,16,48,14.90
2013,03,30,16,49,15.00
2013,03,30,16,50,15.10
2013,03,30,16,51,15.10
2013,03,30,16,52,15.10
2013,03,30,16,53,15.20
2013,03,30,16,54,15.20
2013,03,30,16,55,15.20
2013,03,30,16,56,15.20
2013,03,30,16,57,15.20
2013,03,30,16,58,15.20
2013,03,30,16,59,15.20
2013,03,30,17,00,15.20
2013,03,30,17,01,15.30
2013,03,30,17,02,15.40
2013,03,30,17,03,15.40
2013,03,30,17,04,15.50
2013,03,30,17,05,15.50
2013,03,30,17,06,15.60
2013,03,30,17,07,15.70
2013,03,30,17,08,15.70
2013,03,30,17,09,15.80
2013,03,30,17,10,15.80
2013,03,30,17,11,15.80
2013,03,30,17,12,15.80
2013,03,30,17,13,15.80
2013,03,30,17,14,15.90
2013,03,30,17,15,15.90
2013,03,30,17,16,15.90
2013,03,30,17,17,15.90
2013,03,30,17,18,15.80
2013,03,30,17,19,15.70
2013,03,30,17,20,15.70
2013,03,30,17,21,15.70
2013,03,30,17,22,15.70
2013,03,30,17,23,15.70
2013,03,30,17,24,15.70
2013,03,30,17,25,15.70
2013,03,30,17,26,15.70
2013,03,30,17,27,15.70
2013,03,30,17,28,15.70
2013,03,30,17,29,15.70
2013,03,30,17,30,15.70
2013,03,30,17,31,15.70
2013,03,30,17,32,15.70
2013,03,30,17,33,15.70
2013,03,30,17,34,15.70
2013,03,30,17,35,15.70
2013,03,30,17,36,15.70
2013,03,30,17,37,15.70
2013,03,30,17,38,15.80
2013,03,30,17,39,15.80
2013,03,30,17,40,15.80
2013,03,30,17,41,15.80
2013,03,30,17,42,15.80
2013,03,30,17,43,15.80
2013,03,30,17,44,15.90
2013,03,30,17,45,15.90
2013,03,30,17,46,15.90
2013,03,30,17,47,15.90